This is the latest recevied weather packets stored in our database for station/object PA3BWK. If no packets are shown the sender has not sent any weather packets the latest 10 day(s).
| Time | Temp. | Humidity | Pressure | Rain* | Wind** | Luminosity | Snow |
|---|---|---|---|---|---|---|---|
| 1777473300 | 19.44° C | 26% | 1026.8 hPa | 0 mm | - | 536 W/m² | - |
| 1777473241 | 19.44° C | 27% | 1026.6 hPa | 0 mm | - | 542 W/m² | - |
| 1777473180 | 19.44° C | 28% | 1026.8 hPa | 0 mm | - | 550 W/m² | - |
| 1777473118 | 19.44° C | 25% | 1026.8 hPa | 0 mm | - | 559 W/m² | - |
| 1777473059 | 19.44° C | 25% | 1026.8 hPa | 0 mm | - | 566 W/m² | - |
| 1777472998 | 19.44° C | 25% | 1026.8 hPa | 0 mm | - | 568 W/m² | - |
| 1777472938 | 19.44° C | 25% | 1026.8 hPa | 0 mm | - | 575 W/m² | - |
| 1777472875 | 19.44° C | 25% | 1026.9 hPa | 0 mm | - | 584 W/m² | - |
| 1777472813 | 19.44° C | 24% | 1026.8 hPa | 0 mm | - | 589 W/m² | - |
| 1777472752 | 19.44° C | 24% | 1026.8 hPa | 0 mm | - | 598 W/m² | - |
| 1777472690 | 18.89° C | 24% | 1026.8 hPa | 0 mm | - | 598 W/m² | - |
| 1777472629 | 19.44° C | 24% | 1026.8 hPa | 0 mm | - | 603 W/m² | - |
| 1777472569 | 19.44° C | 24% | 1026.8 hPa | 0 mm | - | 610 W/m² | - |
| 1777472506 | 19.44° C | 24% | 1026.8 hPa | 0 mm | - | 616 W/m² | - |
| 1777472444 | 19.44° C | 24% | 1026.8 hPa | 0 mm | - | 619 W/m² | - |
| 1777472382 | 19.44° C | 25% | 1026.7 hPa | 0 mm | - | 623 W/m² | - |
| 1777472321 | 19.44° C | 27% | 1026.8 hPa | 0 mm | - | 628 W/m² | - |
| 1777472262 | 19.44° C | 24% | 1026.8 hPa | 0 mm | - | 633 W/m² | - |
| 1777472195 | 19.44° C | 26% | 1026.9 hPa | 0 mm | - | 637 W/m² | - |
| 1777472135 | 19.44° C | 25% | 1026.7 hPa | 0 mm | - | 638 W/m² | - |
| 1777472073 | 19.44° C | 26% | 1026.8 hPa | 0 mm | - | 642 W/m² | - |
| 1777472011 | 19.44° C | 25% | 1026.9 hPa | 0 mm | - | 644 W/m² | - |
| 1777471952 | 19.44° C | 27% | 1026.9 hPa | 0 mm | - | 616 W/m² | - |
| 1777471892 | 19.44° C | 26% | 1026.8 hPa | 0 mm | - | 647 W/m² | - |
| 1777471832 | 19.44° C | 26% | 1026.9 hPa | 0 mm | - | 649 W/m² | - |
* Rain latest hour (hover to see other rain measurements)
** Current wind speed in m/s (hover to see current wind gust speed)